Updated17/02/2019 22:25 
 

GeoURL
free counters
Scottish Weather Network UK Weather Network Cumulus Top Weather Sites

Peebles Weather - Realtime Dashboard

Raw Data, Raw Data Expanded

Ignore low humidity and Dew Point values. Something wrong with the sensor.
Daytime temperatures are in direct sunlight so may be higher than official air temperature values.
As with any other website, we log your IP address and browser type in the server logs for diagnostic reasons. Cookies are used to record visit time and gauges preferences. No personal information is stored or processed.

All times are in local time (GMT, or BST in summer) unless specified.

2019/02/17 21:50 EGPH 172150Z 21020KT 9999 -RA FEW015 BKN027 09/05 Q1003
8.4°C 0.9 mm 1.5 mm 1.5 mm 17.1 mph 28.9 mph 999.7 hPa 76% X-Ray Solar Flare Level
Planetary K-Index
Planetary K-Index History
Station Warn Rain Snow Flood Wind Ltng Heat Cold Glob Moon Temp Rain 1h Rain Sun Rain 24h Wind 10m Gust Pressure Hum Proton Levels

0.411 m Gust: 28.9mph Waxing Gibbous Cold F4-SSW F: A: Kp:0 SSN:0

Cumulus Silverlight Dashboard

 

XHTML 1.1 | CSS